CW5834 Weather Reports


time (UTC)temp
F
wind
direction
speed
knots
gust
knots
rain 1hr
in
rain 24hr
in
rain mn
in
humidity
%
barometer
mb
20260902210037 94 315 0.9 2.6 0.00 0.00 0.00 49 1020.1
20260902205017 94 0 1.7 2.6 0.00 0.00 0.00 49 1020.1
20260902204017 93 45 1.7 2.6 0.00 0.00 0.00 53 1020.3
20260902203017 94 293 0.9 1.7 0.00 0.00 0.00 49 1020.4
20260902202017 94 293 0.9 1.7 0.00 0.00 0.00 48 1020.6
20260902201017 94 0.0 1.7 0.00 0.00 0.00 49 1020.6
20260902200017 94 0 0.9 2.6 0.00 0.00 0.00 47 1020.8
20260902195017 93 338 1.7 4.3 0.00 0.00 0.00 49 1020.8
20260902194017 93 225 0.9 2.6 0.00 0.00 0.00 47 1021.0
20260902193057 93 0 0.9 3.5 0.00 0.00 0.00 53 1021.2
20260902192017 92 45 0.9 1.7 0.00 0.00 0.00 48 1021.2
20260902191017 92 45 1.7 3.5 0.00 0.00 0.00 51 1021.4
20260902190017 92 0 1.7 3.5 0.00 0.00 0.00 54 1021.4
20260902185017 92 293 0.9 3.5 0.00 0.00 0.00 53 1021.5
20260902184017 92 315 2.6 3.5 0.00 0.00 0.00 55 1021.6
20260902183017 92 338 2.6 4.3 0.00 0.00 0.00 53 1021.7
20260902182017 92 225 0.9 3.5 0.00 0.00 0.00 55 1021.7
20260902181037 92 315 2.6 4.3 0.00 0.00 0.00 58 1021.7
20260902180017 91 23 1.7 4.3 0.00 0.00 0.00 55 1021.8
20260902175021 91 23 1.7 2.6 0.00 0.00 0.00 56 1021.9
20260902174017 90 113 1.7 3.5 0.00 0.00 0.00 58 1021.9
20260902173037 90 0 0.9 2.6 0.00 0.00 0.00 55 1022.0
20260902172017 90 23 1.7 4.3 0.00 0.00 0.00 58 1022.2
20260902171017 90 338 1.7 4.3 0.00 0.00 0.00 64 1022.4
20260902170037 89 23 0.9 2.6 0.00 0.00 0.00 62 1022.5
20260902165017 90 315 0.9 2.6 0.00 0.00 0.00 61 1022.6
20260902164037 90 293 2.6 3.5 0.00 0.00 0.00 60 1022.7
20260902163017 90 315 0.9 1.7 0.00 0.00 0.00 61 1022.8
20260902162017 89 0.0 1.7 0.00 0.00 0.00 63 1023.0
20260902161017 89 0 0.9 2.6 0.00 0.00 0.00 64 1023.1
20260902160037 88 203 0.9 2.6 0.00 0.00 0.00 62 1023.0
20260902155016 88 45 0.9 2.6 0.00 0.00 0.00 67 1023.0
20260902154057 87 180 0.9 2.6 0.00 0.00 0.00 64 1023.0
20260902153017 87 203 0.9 3.5 0.00 0.00 0.00 63 1023.0
20260902152017 88 158 0.9 2.6 0.00 0.00 0.00 66 1023.0
20260902151037 87 90 0.9 1.7 0.00 0.00 0.00 72 1022.9
20260902150016 86 90 0.9 1.7 0.00 0.00 0.00 71 1022.8
20260902145017 85 248 0.9 1.7 0.00 0.00 0.00 73 1022.8
20260902144016 85 338 0.9 1.7 0.00 0.00 0.00 75 1022.7
20260902143016 84 0 0.9 1.7 0.00 0.00 0.00 75 1022.8
20260902142036 83 0.0 1.7 0.00 0.00 0.00 76 1022.6
20260902141016 83 45 0.9 1.7 0.00 0.00 0.00 79 1022.6
20260902140016 82 90 0.9 1.7 0.00 0.00 0.00 82 1022.6
20260902135016 80 0 0.9 1.7 0.00 0.00 0.00 83 1022.6
20260902134016 80 315 0.9 2.6 0.00 0.00 0.00 84 1022.6
20260902133016 79 135 0.9 1.7 0.00 0.00 0.00 84 1022.6
20260902132022 78 315 0.9 1.7 0.00 0.00 0.00 88 1022.7
20260902131016 77 0.0 1.7 0.00 0.00 0.00 88 1022.8
20260902130016 75 0.0 1.7 0.00 0.00 0.00 91 1022.6
20260902125016 74 113 0.9 1.7 0.00 0.00 0.00 92 1022.4
20260902124016 73 0.0 1.7 0.00 0.00 0.00 93 1022.5
20260902123016 72 0.0 1.7 0.00 0.00 0.00 94 1022.6
20260902122016 72 0.0 1.7 0.00 0.00 0.00 94 1022.5
20260902121016 71 0.0 1.7 0.00 0.00 0.00 96 1022.3
20260902120016 70 0.0 1.7 0.00 0.00 0.00 96 1022.3
20260902115036 69 0.0 1.7 0.00 0.00 0.00 95 1022.1
20260902114016 69 0.0 1.7 0.00 0.00 0.00 95 1022.1
20260902113016 69 0.0 0.9 0.00 0.00 0.00 95 1022.1
20260902112016 69 0.0 0.0 0.00 0.00 0.00 95 1021.8
20260902111016 69 0.0 1.7 0.00 0.00 0.00 95 1021.7
20260902110016 69 0.0 0.9 0.00 0.00 0.00 95 1021.7
20260902105036 69 0.0 1.7 0.00 0.00 0.00 95 1021.6
20260902104016 69 0.0 1.7 0.00 0.00 0.00 95 1021.6
20260902103016 69 0.0 0.0 0.00 0.00 0.00 95 1021.6
20260902102016 69 0.0 0.9 0.00 0.00 0.00 95 1021.5
20260902101016 69 0.0 1.7 0.00 0.00 0.00 94 1021.5
20260902100016 69 0.0 0.9 0.00 0.00 0.00 95 1021.3
20260902095016 70 0.0 1.7 0.00 0.00 0.00 95 1021.3
20260902094015 70 0.0 1.7 0.00 0.00 0.00 95 1021.2
20260902093016 70 0.0 0.9 0.00 0.00 0.00 95 1021.4
20260902092015 70 0.0 0.0 0.00 0.00 0.00 95 1021.2
20260902091016 70 0 0.9 1.7 0.00 0.00 0.00 95 1021.1
20260902090016 70 0.0 0.9 0.00 0.00 0.00 95 1021.2
20260902085015 70 0.0 0.9 0.00 0.00 0.00 94 1021.1
20260902084015 70 0 0.9 0.9 0.00 0.00 0.00 94 1021.0
20260902083015 70 0.0 1.7 0.00 0.00 0.00 94 1021.2
20260902082015 70 0.0 1.7 0.00 0.00 0.00 94 1021.1
20260902081016 70 0.0 1.7 0.00 0.00 0.00 94 1021.1
20260902080016 70 0.0 1.7 0.00 0.00 0.00 94 1021.1
20260902075036 70 0 0.9 0.9 0.00 0.00 0.00 94 1021.1
20260902074036 70 0.0 1.7 0.00 0.00 0.00 94 1021.0
20260902073015 70 23 0.9 0.9 0.00 0.00 0.00 94 1020.9
20260902072015 70 0.0 1.7 0.00 0.00 0.00 94 1021.1
20260902071015 70 0.0 1.7 0.00 0.00 0.00 93 1021.0
20260902070016 70 0.0 1.7 0.00 0.00 0.00 94 1020.9
20260902065017 70 0.0 0.9 0.00 0.00 0.00 93 1020.9
20260902064037 70 0.0 0.9 0.00 0.00 0.00 94 1020.9
20260902063037 70 0.0 1.7 0.00 0.00 0.00 93 1021.0
20260902062017 70 23 0.9 0.9 0.00 0.00 0.00 93 1021.1
20260902061037 70 0.0 0.0 0.00 0.00 0.00 93 1021.1
20260902060017 70 0.0 1.7 0.00 0.00 0.00 93 1021.1
20260902055017 70 0.0 0.0 0.00 0.00 0.00 93 1021.1
20260902054037 71 0.0 1.7 0.00 0.00 0.00 93 1021.2
20260902053017 71 0.0 1.7 0.00 0.00 0.00 93 1021.1
20260902052017 71 0.0 0.0 0.00 0.00 0.00 93 1021.1
20260902051017 71 0.0 0.0 0.00 0.00 0.00 93 1021.2
20260902050017 71 0.0 1.7 0.00 0.00 0.00 93 1021.2
20260902045017 71 0.0 1.7 0.00 0.00 0.00 93 1021.1
20260902044057 71 0.0 0.0 0.00 0.00 0.00 93 1021.1
20260902043017 71 0.0 1.7 0.00 0.00 0.00 93 1021.1
20260902042017 71 0.0 1.7 0.00 0.00 0.00 93 1021.1
20260902041017 71 0.0 1.7 0.00 0.00 0.00 93 1021.1
20260902040017 71 0.0 0.0 0.00 0.00 0.00 92 1021.1
20260902035016 72 0.0 0.9 0.00 0.00 0.00 92 1021.1
20260902034017 72 0.0 0.0 0.00 0.00 0.00 92 1021.1
20260902033036 72 0.0 1.7 0.00 0.00 0.00 92 1021.0
20260902032016 72 0.0 1.7 0.00 0.00 0.00 92 1021.1
20260902031036 72 0.0 0.0 0.00 0.00 0.00 92 1020.9
20260902030016 73 0.0 0.9 0.00 0.00 0.00 92 1020.9
20260902025016 73 0.0 0.0 0.00 0.00 0.00 93 1020.9
20260902024016 73 0.0 0.9 0.00 0.00 0.00 92 1021.0
20260902023016 73 0.0 0.0 0.00 0.00 0.00 92 1020.9
20260902022016 74 0.0 0.0 0.00 0.00 0.00 92 1020.9
20260902021016 74 0.0 0.0 0.00 0.00 0.00 92 1020.9
20260902020016 74 0.0 0.0 0.00 0.00 0.00 91 1020.8
20260902015016 75 0.0 0.0 0.00 0.00 0.00 91 1020.7
20260902014016 75 0.0 0.0 0.00 0.00 0.00 90 1020.7
20260902013016 75 0.0 1.7 0.00 0.00 0.00 90 1020.4
20260902012016 76 0.0 1.7 0.00 0.00 0.00 89 1020.4
20260902011016 76 0.0 0.0 0.00 0.00 0.00 89 1020.3
20260902010016 77 0.0 0.0 0.00 0.00 0.00 88 1020.2
20260902005016 77 0.0 1.7 0.00 0.00 0.00 87 1020.1
20260902004036 78 0.0 1.7 0.00 0.00 0.00 86 1020.0
20260902003016 78 0.0 0.0 0.00 0.00 0.00 85 1020.0
20260902002015 79 0.0 0.0 0.00 0.00 0.00 83 1020.1
20260902001016 80 0.0 0.9 0.00 0.00 0.00 81 1020.1
20260902000015 80 0.0 0.0 0.00 0.00 0.00 80 1020.1
20260901235016 81 0.0 1.7 0.00 0.00 0.00 78 1020.0
20260901234015 82 0.0 1.7 0.00 0.00 0.00 76 1020.1
20260901233015 83 0.0 1.7 0.00 0.00 0.00 75 1020.2
20260901232015 84 0.0 0.9 0.00 0.00 0.00 73 1020.4
20260901231015 84 0.0 0.9 0.00 0.00 0.00 71 1020.5
20260901230015 85 315 0.9 0.9 0.00 0.00 0.00 71 1020.4
20260901225018 86 315 0.9 0.9 0.00 0.00 0.00 69 1020.5
20260901224015 88 315 0.9 0.9 0.00 0.00 0.00 68 1020.7
20260901223017 88 315 0.9 0.9 0.00 0.00 0.00 66 1020.7
20260901222022 89 315 0.9 1.7 0.00 0.00 0.00 65 1020.6
20260901221017 89 315 1.7 1.7 0.00 0.00 0.00 64 1020.6
20260901220017 89 315 0.9 1.7 0.00 0.00 0.00 65 1020.6
20260901215017 89 293 0.9 0.9 0.00 0.00 0.00 66 1020.8
20260901214017 87 315 0.9 0.9 0.00 0.00 0.00 70 1020.6
20260901213017 87 315 0.9 1.7 0.00 0.00 0.00 69 1020.7
20260901212017 90 293 0.9 1.7 0.00 0.00 0.00 64 1020.9
20260901211017 91 248 0.9 1.7 0.00 0.00 0.00 61 1020.9